Canby, MN

1:32 PM CDT on September 29, 2016 (GMT -0500)
Canby

Weather History for KCNB - May, 2013

Change the Weather History Date:

Tuesday, May 28, 2013

  Actual Average (KMML) Record (KMML)
Temperature  
Mean Temperature 61 °F -  
Max Temperature 68 °F 75 °F 95 °F (1969)
Min Temperature 54 °F 53 °F 32 °F (1965)
Degree Days  
Heating Degree Days 4    
Growing Degree Days 11 (Base 50)    
Moisture  
Dew Point 56 °F    
Average Humidity 91    
Maximum Humidity 99    
Minimum Humidity 76    
Precipitation  
Precipitation 0.00 in - - ()
Sea Level Pressure  
Sea Level Pressure 29.74 in    
Wind  
Wind Speed 1 mph (ESE)    
Max Wind Speed 13 mph    
Max Gust Speed 16 mph    
Visibility 6 miles    
Events Fog , Rain    
Averages and records for this station are not official NWS values.
T = Trace of Precipitation, MM = Missing Value Source: NWS Daily Summary

Daily Weather History Graph

Daily Weather History Graph

Search for Another Location

Airport or City:

Trip Planner

Search our weather history database for the weather conditions in past years. The results will help you decide how hot, cold, wet, or windy it might be!

Date:

Astronomy

May. 28, 2013 Rise Set
Actual Time 5:44 AM CDT 9:00 PM CDT
Civil Twilight 5:09 AM CDT 9:36 PM CDT
Nautical Twilight 4:23 AM CDT 10:22 PM CDT
Astronomical Twilight 3:26 AM CDT 11:20 PM CDT
Moon No Moon Rise 9:38 AM CDT (5/28)
Length of Visible Light 16h 26m
Length of Day
15h 15m
Waning Gibbous, 82% of the Moon is Illuminated
May 28
Waning Gibbous
May 31
Last Quarter
Jun 8
New
Jun 16
First Quarter
Jun 23
Full

Hourly Weather History & Observations

Time (CDT) Temp. Dew Point Humidity Pressure Visibility Wind Dir Wind Speed Gust Speed Precip Events Conditions
12:14 AM 55.6 °F 54.7 °F 97% 29.78 in 4.0 mi Calm Calm - N/A   Overcast
12:35 AM 55.6 °F 54.7 °F 97% 29.78 in 4.0 mi Calm Calm - N/A   Overcast
12:55 AM 55.4 °F 54.5 °F 97% 29.78 in 4.0 mi ESE 6.9 mph - N/A   Overcast
1:15 AM 55.6 °F 54.7 °F 97% 29.79 in 5.0 mi ESE 3.5 mph - N/A   Overcast
1:35 AM 55.4 °F 54.5 °F 97% 29.80 in 4.0 mi SE 5.8 mph - N/A   Overcast
1:55 AM 55.4 °F 54.5 °F 97% 29.78 in 3.0 mi Calm Calm - N/A   Overcast
2:14 AM 55.4 °F 54.5 °F 97% 29.77 in 2.5 mi Calm Calm - N/A   Overcast
2:35 AM 55.2 °F 54.5 °F 97% 29.76 in 2.0 mi Calm Calm - N/A   Overcast
2:55 AM 55.0 °F 54.3 °F 97% 29.76 in 3.0 mi Calm Calm - N/A   Overcast
3:14 AM 54.9 °F 54.1 °F 97% 29.76 in 1.0 mi Calm Calm - N/A   Overcast
3:35 AM 54.7 °F 54.1 °F 98% 29.77 in 0.8 mi Calm Calm - N/A   Overcast
3:55 AM 54.7 °F 54.1 °F 98% 29.78 in 0.8 mi Calm Calm - N/A   Overcast
4:15 AM 54.7 °F 54.1 °F 98% 29.76 in 0.5 mi Calm Calm - N/A Fog Fog
4:35 AM 54.7 °F 54.1 °F 98% 29.76 in 0.5 mi Calm Calm - N/A Fog Fog
4:54 AM 54.7 °F 54.1 °F 98% 29.74 in 0.5 mi Calm Calm - N/A Fog Fog
5:15 AM 54.5 °F 54.0 °F 98% 29.73 in 0.5 mi Calm Calm - N/A Fog Fog
5:35 AM 54.5 °F 54.0 °F 98% 29.72 in 0.5 mi Calm Calm - N/A Fog Fog
5:55 AM 54.5 °F 54.0 °F 98% 29.72 in 0.8 mi Calm Calm - N/A   Overcast
6:14 AM 54.5 °F 54.0 °F 98% 29.72 in 0.8 mi Calm Calm - N/A   Overcast
6:35 AM 54.5 °F 54.1 °F 99% 29.71 in 0.5 mi Calm Calm - N/A Rain Light Rain
6:55 AM 54.5 °F 54.3 °F 99% 29.71 in 0.5 mi Calm Calm - N/A Fog Fog
7:15 AM 54.7 °F 54.5 °F 99% 29.71 in 0.8 mi Calm Calm - N/A   Overcast
7:34 AM 55.0 °F 54.7 °F 99% 29.70 in 1.5 mi Calm Calm - N/A   Overcast
7:55 AM 55.0 °F 54.7 °F 99% 29.70 in 2.5 mi Calm Calm - N/A   Overcast
8:15 AM 54.9 °F 54.5 °F 99% 29.69 in 3.0 mi East 12.7 mph 16.1 mph N/A   Overcast
8:34 AM 55.0 °F 54.7 °F 99% 29.69 in 4.0 mi Calm Calm - N/A   Overcast
8:55 AM 54.9 °F 54.5 °F 99% 29.70 in 2.5 mi ESE 6.9 mph 16.1 mph N/A   Overcast
9:15 AM 55.4 °F 54.7 °F 97% 29.72 in 4.0 mi Calm Calm - N/A   Overcast
9:35 AM 55.4 °F 54.9 °F 98% 29.74 in 7.0 mi Calm Calm - N/A   Overcast
9:54 AM 55.6 °F 54.9 °F 97% 29.75 in 7.0 mi Calm Calm - N/A   Overcast
10:15 AM 56.1 °F 55.2 °F 97% 29.75 in 4.0 mi Calm Calm - N/A   Overcast
10:35 AM 56.5 °F 55.6 °F 97% 29.75 in 4.0 mi Calm Calm - N/A   Overcast
10:55 AM 57.2 °F 55.9 °F 96% 29.74 in 4.0 mi Calm Calm - N/A   Overcast
11:14 AM 57.0 °F 55.6 °F 95% 29.74 in 2.0 mi Calm Calm - N/A   Overcast
11:35 AM 57.2 °F 55.8 °F 95% 29.74 in 4.0 mi Calm Calm - N/A   Overcast
11:55 AM 57.4 °F 55.8 °F 94% 29.74 in 7.0 mi Calm Calm - N/A   Overcast
12:14 PM 57.9 °F 55.8 °F 92% 29.74 in 10.0 mi Calm Calm - N/A   Overcast
12:35 PM 58.6 °F 55.9 °F 91% 29.74 in 10.0 mi Calm Calm - N/A   Overcast
12:55 PM 59.7 °F 56.3 °F 88% 29.74 in 10.0 mi Calm Calm - N/A   Overcast
1:14 PM 60.1 °F 56.3 °F 87% 29.75 in 10.0 mi Calm Calm - N/A   Overcast
1:35 PM 60.3 °F 56.3 °F 87% 29.75 in 10.0 mi Calm Calm - N/A   Overcast
1:55 PM 60.3 °F 56.5 °F 87% 29.74 in 10.0 mi Calm Calm - N/A   Overcast
2:15 PM 61.3 °F 56.7 °F 85% 29.74 in 10.0 mi Calm Calm - N/A   Overcast
2:35 PM 61.9 °F 57.2 °F 85% 29.73 in 10.0 mi Calm Calm - N/A   Overcast
2:54 PM 62.6 °F 57.2 °F 82% 29.74 in 10.0 mi Calm Calm - N/A   Overcast
3:15 PM 63.1 °F 57.4 °F 81% 29.74 in 10.0 mi Calm Calm - N/A   Overcast
3:35 PM 63.5 °F 57.9 °F 82% 29.74 in 10.0 mi Calm Calm - N/A   Overcast
3:55 PM 64.4 °F 57.9 °F 79% 29.73 in 10.0 mi Calm Calm - N/A   Mostly Cloudy
4:15 PM 64.8 °F 58.5 °F 80% 29.73 in 10.0 mi Calm Calm - N/A   Scattered Clouds
4:35 PM 65.3 °F 59.0 °F 80% 29.73 in 10.0 mi Calm Calm - N/A   Scattered Clouds
4:55 PM 66.2 °F 59.2 °F 78% 29.73 in 10.0 mi Calm Calm - N/A   Scattered Clouds
5:15 PM 67.3 °F 59.7 °F 77% 29.72 in 10.0 mi Calm Calm - N/A   Clear
5:35 PM 67.3 °F 59.5 °F 76% 29.72 in 10.0 mi Calm Calm - N/A   Clear
5:55 PM 67.5 °F 59.7 °F 76% 29.72 in 10.0 mi Calm Calm - N/A   Clear
6:15 PM 67.6 °F 59.9 °F 76% 29.72 in 10.0 mi Calm Calm - N/A   Clear
6:35 PM 67.8 °F 59.9 °F 76% 29.72 in 10.0 mi SE 8.1 mph - N/A   Clear
6:54 PM 68.0 °F 60.3 °F 76% 29.71 in 10.0 mi SE 5.8 mph - N/A   Clear
7:15 PM 67.3 °F 60.3 °F 78% 29.71 in 10.0 mi SE 5.8 mph - N/A   Clear
7:35 PM 66.9 °F 60.3 °F 79% 29.71 in 10.0 mi ESE 9.2 mph - N/A   Clear
7:54 PM 65.8 °F 59.5 °F 80% 29.70 in 10.0 mi ESE 10.4 mph - N/A   Clear
8:15 PM 65.1 °F 59.4 °F 82% 29.69 in 10.0 mi ESE 6.9 mph - N/A   Clear
8:35 PM 64.0 °F 59.4 °F 85% 29.69 in 10.0 mi Calm Calm - N/A   Clear
8:54 PM 63.0 °F 59.0 °F 87% 29.70 in 10.0 mi Calm Calm - N/A   Clear
9:15 PM 61.3 °F 58.5 °F 90% 29.71 in 10.0 mi Calm Calm - N/A   Clear
9:35 PM 60.8 °F 58.3 °F 91% 29.72 in 10.0 mi Calm Calm - N/A   Clear
9:55 PM 60.4 °F 58.1 °F 92% 29.72 in 10.0 mi Calm Calm - N/A   Clear
10:15 PM 59.9 °F 57.4 °F 91% 29.72 in 10.0 mi Calm Calm - N/A   Clear
10:35 PM 59.0 °F 57.0 °F 93% 29.72 in 7.0 mi Calm Calm - N/A   Clear
10:55 PM 59.2 °F 57.2 °F 93% 29.74 in 7.0 mi SSE 3.5 mph - N/A   Clear
11:14 PM 59.4 °F 57.2 °F 93% 29.76 in 7.0 mi Calm Calm - N/A   Clear
11:35 PM 58.5 °F 56.7 °F 94% 29.75 in 7.0 mi Calm Calm - N/A   Clear
11:55 PM 58.3 °F 56.5 °F 94% 29.76 in 7.0 mi Calm Calm - N/A   Clear